1516024800.05,2174,10.0,72986.0,-8.81,-46.75,-46.55,0,*63
1516024801.34,2175,10.0,72990.3,-8.81,-46.49,-46.27,0,*68
1516024802.57,2176,10.0,72986.3,-8.83,-46.55,-46.41,0,*64
1516024803.85,2177,10.0,72988.8,-8.81,-46.69,-46.49,0,*60
1516024805.09,2178,10.0,72988.5,-8.83,-47.09,-46.89,0,*66
1516024806.29,2179,10.0,72984.3,-8.83,-46.75,-46.55,0,*6C
1516024807.52,2180,10.0,72984.5,-8.83,-46.55,-46.41,0,*6D
1516024808.79,2181,10.0,72986.8,-8.83,-46.27,-46.07,0,*6B
1516024810.04,2182,10.0,72988.0,-8.81,-46.49,-46.21,0,*66
1516024811.3,2183,10.0,72984.0,-8.81,-46.75,-46.49,0,*66
1516024812.56,2184,10.0,72984.8,-8.83,-46.89,-46.69,0,*62
1516024813.8,2185,10.0,72986.5,-8.83,-46.89,-46.55,0,*6C
1516024815.08,2186,10.0,72986.0,-8.81,-46.89,-46.69,0,*62
1516024816.32,2187,10.0,72988.3,-8.83,-46.89,-46.55,0,*6E
1516024817.56,2188,10.0,72984.8,-8.83,-46.89,-46.55,0,*61
1516024818.76,2189,10.0,72984.3,-8.85,-46.75,-46.55,0,*65
1516024819.97,2190,10.0,72984.0,-8.85,-46.75,-46.55,0,*6D
1516024821.22,2191,10.0,72982.8,-8.85,-46.69,-46.41,0,*64
1516024822.48,2192,10.0,72986.3,-8.85,-46.69,-46.49,0,*6F
1516024823.74,2193,10.0,72986.8,-8.85,-46.69,-46.49,0,*6E
1516024825.0,2194,10.0,72984.5,-8.85,-46.69,-46.49,0,*69
1516024826.28,2195,10.0,72984.3,-8.87,-46.61,-46.27,0,*6A
1516024827.55,2196,10.0,72986.0,-8.85,-46.49,-46.27,0,*61
1516024828.81,2197,10.0,72984.8,-8.85,-46.49,-46.27,0,*60
1516024830.04,2198,10.0,72984.5,-8.87,-46.75,-46.35,0,*61
1516024831.27,2199,10.0,72984.3,-8.85,-46.55,-46.41,0,*63
1516024832.55,2200,10.0,72986.8,-8.87,-46.61,-46.27,0,*65
1516024833.79,2201,10.0,72990.0,-8.85,-46.55,-46.27,0,*61
1516024835.05,2202,10.0,72984.3,-8.87,-46.75,-46.49,0,*6A
1516024836.33,2203,10.0,72986.3,-8.87,-46.61,-46.27,0,*66
1516024837.59,2204,10.0,72984.8,-8.85,-46.69,-46.49,0,*63
1516024838.85,2205,10.0,72984.8,-8.87,-46.83,-46.61,0,*6E
1516024840.08,2206,10.0,72990.0,-8.87,-46.83,-46.55,0,*6A
1516024841.36,2207,10.0,72988.0,-8.87,-47.03,-46.61,0,*65
1516024842.62,2208,10.0,72986.5,-8.87,-46.97,-46.61,0,*66
1516024843.88,2209,10.0,72986.3,-8.87,-46.61,-46.35,0,*6F
1516024845.11,2210,10.0,72984.3,-8.85,-46.75,-46.41,0,*63
1516024846.34,2211,10.0,72986.0,-8.87,-46.75,-46.55,0,*65
1516024847.57,2212,10.0,72986.0,-8.87,-46.75,-46.55,0,*66
1516024848.83,2213,10.0,72984.5,-8.87,-46.83,-46.61,0,*69
1516024850.06,2214,10.0,72984.0,-8.87,-46.75,-46.55,0,*60
1516024851.31,2215,10.0,72986.8,-8.91,-46.61,-46.55,0,*63
1516024852.56,2216,10.0,72986.0,-8.91,-46.55,-46.41,0,*62
1516024853.77,2217,10.0,72986.3,-8.89,-46.55,-46.35,0,*69
1516024854.97,2218,10.0,72984.5,-8.89,-46.75,-46.55,0,*62
1516024856.18,2219,10.0,72986.0,-8.89,-46.83,-46.55,0,*6A
1516024857.39,2220,10.0,72986.3,-8.89,-46.75,-46.55,0,*69
1516024858.6,2221,10.0,72984.0,-8.89,-46.97,-46.55,0,*64
1516024859.83,2222,10.0,72986.3,-8.89,-46.75,-46.49,0,*66
1516024861.04,2223,10.0,72988.8,-8.89,-46.97,-46.55,0,*66
1516024862.3,2224,10.0,72984.8,-8.91,-47.09,-46.69,0,*61
1516024863.53,2225,10.0,72984.8,-8.89,-46.89,-46.55,0,*6F
1516024864.74,2226,10.0,72984.0,-8.89,-46.75,-46.55,0,*6F
1516024865.97,2227,10.0,72988.8,-8.89,-46.97,-46.61,0,*65
1516024867.17,2228,10.0,72986.8,-8.89,-47.17,-46.75,0,*66
1516024868.45,2229,10.0,72984.8,-8.91,-47.03,-46.69,0,*66
1516024869.72,2230,10.0,72986.5,-8.91,-47.03,-46.69,0,*6E
1516024871.0,2231,10.0,72988.8,-8.91,-47.03,-46.69,0,*6F
1516024872.28,2232,10.0,72986.0,-8.91,-46.89,-46.69,0,*6F
1516024873.51,2233,10.0,72990.8,-8.93,-46.89,-46.75,0,*61
1516024874.75,2234,10.0,72988.3,-8.93,-46.97,-46.69,0,*64
1516024876.03,2235,10.0,72986.8,-8.95,-46.69,-46.41,0,*68
1516024877.29,2236,10.0,72988.8,-8.93,-46.69,-46.49,0,*65
1516024878.57,2237,10.0,72984.0,-8.95,-46.89,-46.61,0,*66
1516024879.79,2238,10.0,72984.8,-8.93,-46.75,-46.61,0,*6C
1516024881.02,2239,10.0,72986.5,-8.93,-47.09,-46.61,0,*67
1516024882.26,2240,10.0,72986.5,-8.93,-46.97,-46.69,0,*67
1516024883.54,2241,10.0,72984.0,-8.95,-46.89,-46.69,0,*6F
1516024884.8,2242,10.0,72986.5,-8.95,-46.89,-46.75,0,*61
1516024886.05,2243,10.0,72984.3,-8.95,-46.75,-46.61,0,*66
1516024887.31,2244,10.0,72984.3,-8.95,-46.75,-46.49,0,*6B
1516024888.57,2245,10.0,72984.5,-8.95,-46.97,-46.69,0,*64
1516024889.78,2246,10.0,72984.3,-8.93,-47.09,-46.75,0,*6A
1516024891.04,2247,10.0,72984.5,-8.95,-46.89,-46.75,0,*64
1516024892.28,2248,10.0,72988.8,-8.95,-46.75,-46.61,0,*6D
1516024893.54,2249,10.0,72988.3,-8.95,-46.75,-46.49,0,*66
1516024894.75,2250,10.0,72986.0,-8.97,-46.75,-46.55,0,*61
1516024895.97,2251,10.0,72982.5,-8.99,-46.75,-46.55,0,*6E
1516024897.21,2252,10.0,72986.3,-8.97,-46.83,-46.69,0,*65
1516024898.47,2253,10.0,72986.0,-8.97,-46.69,-46.49,0,*62
1516024899.67,2254,10.0,72984.0,-8.97,-46.75,-46.55,0,*65
1516024900.9,2255,10.0,72984.3,-8.97,-46.75,-46.49,0,*69
1516024902.12,2256,10.0,72986.3,-8.97,-46.83,-46.55,0,*6E
1516024903.33,2257,10.0,72984.3,-8.97,-46.83,-46.55,0,*6F
1516024904.56,2258,10.0,72986.3,-8.97,-46.75,-46.49,0,*64
1516024905.82,2259,10.0,72986.8,-8.99,-46.97,-46.69,0,*65
1516024907.07,2260,10.0,72986.0,-8.97,-47.03,-46.69,0,*6D
1516024908.33,2261,10.0,72984.5,-8.99,-46.83,-46.69,0,*6B
1516024909.59,2262,10.0,72986.5,-8.97,-46.49,-46.27,0,*6A
1516024910.84,2263,10.0,72984.8,-8.99,-46.75,-46.69,0,*60
1516024912.07,2264,10.0,72984.8,-8.99,-46.97,-46.75,0,*66
1516024913.29,2265,10.0,72984.0,-8.97,-46.83,-46.55,0,*6E
1516024914.5,2266,10.0,72986.5,-8.97,-46.83,-46.55,0,*6D
1516024915.76,2267,10.0,72986.5,-8.99,-46.55,-46.49,0,*64
1516024916.99,2268,10.0,72986.5,-8.99,-46.83,-46.55,0,*6D
1516024918.23,2269,10.0,72988.3,-8.99,-46.83,-46.83,0,*67
1516024919.46,2270,10.0,72986.3,-8.99,-46.83,-46.55,0,*64
1516024920.7,2271,10.0,72986.8,-8.99,-46.97,-46.75,0,*62
1516024921.96,2272,10.0,72984.5,-9.03,-47.03,-46.75,0,*6F
1516024923.2,2273,10.0,72984.8,-9.03,-46.83,-46.83,0,*6E
1516024924.44,2274,10.0,72986.5,-9.03,-46.83,-46.75,0,*60
1516024925.67,2275,10.0,72984.0,-9.03,-46.75,-46.55,0,*6A
1516024926.93,2276,10.0,72984.0,-9.03,-46.83,-46.61,0,*67
1516024928.16,2277,10.0,72986.3,-9.05,-47.03,-46.83,0,*65
1516024929.41,2278,10.0,72986.0,-9.03,-47.09,-46.83,0,*66
1516024930.67,2279,10.0,72986.3,-9.03,-46.89,-46.75,0,*67
1516024931.95,2280,10.0,72984.3,-9.03,-47.03,-46.89,0,*61
1516024933.23,2281,10.0,72986.8,-9.03,-47.03,-46.61,0,*66
1516024934.47,2282,10.0,72986.0,-9.05,-47.03,-46.83,0,*6F
1516024935.68,2283,10.0,72984.3,-9.05,-47.09,-46.83,0,*64
1516024936.92,2284,10.0,72986.3,-9.05,-47.03,-46.75,0,*60
1516024938.16,2285,10.0,72988.3,-9.05,-46.89,-46.75,0,*62
1516024939.4,2286,10.0,72986.3,-9.05,-46.89,-46.75,0,*61
1516024940.64,2287,10.0,72984.0,-9.05,-47.03,-46.83,0,*6A
1516024941.88,2288,10.0,72986.5,-9.05,-46.89,-46.75,0,*6F
1516024943.11,2289,10.0,72986.8,-9.05,-46.83,-46.61,0,*61
1516024944.39,2290,10.0,72984.5,-9.07,-46.89,-46.69,0,*69
1516024945.68,2291,10.0,72986.5,-9.07,-46.89,-46.69,0,*68
1516024946.92,2292,10.0,72988.0,-9.05,-46.83,-46.41,0,*69
1516024948.2,2293,10.0,72986.8,-9.07,-46.69,-46.49,0,*66
1516024949.45,2294,10.0,72984.3,-9.07,-46.83,-46.61,0,*6F
1516024950.69,2295,10.0,72986.3,-9.07,-46.97,-46.83,0,*67
1516024951.98,2296,10.06,72988.5,-9.07,-46.69,-46.49,0,*63
1516024953.26,2297,10.0,72986.0,-9.07,-46.69,-46.49,0,*62
1516024954.52,2298,10.0,72984.8,-9.09,-46.69,-46.41,0,*6B
1516024955.8,2299,10.0,72984.0,-9.07,-46.69,-46.49,0,*6C
1516024957.09,2300,10.06,72990.3,-9.07,-46.89,-46.61,0,*69
1516024958.36,2301,10.0,72986.3,-9.07,-46.69,-46.41,0,*64
1516024959.64,2302,10.06,72988.3,-9.07,-46.69,-46.41,0,*67
1516024960.92,2303,10.0,72986.3,-9.07,-46.61,-46.49,0,*66
1516024962.2,2304,10.0,72984.3,-9.07,-46.69,-46.41,0,*61
1516024963.48,2305,10.06,72988.8,-9.07,-46.61,-46.41,0,*68
1516024964.76,2306,10.0,72986.3,-9.07,-46.61,-46.49,0,*63
1516024966.01,2307,10.0,72984.0,-9.09,-46.83,-46.49,0,*60
1516024967.28,2308,10.0,72986.0,-9.09,-46.69,-46.49,0,*6B
1516024968.54,2309,10.0,72984.3,-9.07,-46.83,-46.49,0,*60
1516024969.8,2310,10.0,72986.3,-9.09,-46.69,-46.41,0,*6A
1516024971.04,2311,10.0,72986.3,-9.09,-46.83,-46.41,0,*6F
1516024972.31,2312,10.06,72988.8,-9.09,-46.89,-46.69,0,*6C
1516024973.58,2313,10.06,72986.8,-9.09,-46.89,-46.61,0,*65
1516024974.84,2314,10.0,72984.3,-9.09,-46.61,-46.49,0,*6E
1516024976.11,2315,10.0,72986.8,-9.09,-46.69,-46.49,0,*67
1516024977.35,2316,10.0,72988.3,-9.09,-47.09,-46.89,0,*6F
1516024978.59,2317,10.0,72986.0,-9.09,-46.97,-46.89,0,*68
1516024979.83,2318,10.0,72986.5,-9.11,-46.97,-46.75,0,*6D
1516024981.08,2319,10.0,72986.3,-9.11,-46.97,-46.75,0,*6C
1516024982.37,2320,10.0,72984.3,-9.11,-46.89,-46.69,0,*64
1516024983.63,2321,10.06,72986.3,-9.11,-46.97,-46.69,0,*6A
1516024984.9,2322,10.0,72982.0,-9.11,-46.89,-46.75,0,*6B
1516024986.14,2323,10.0,72986.3,-9.11,-46.97,-46.75,0,*65
1516024987.38,2324,10.0,72984.8,-9.13,-46.97,-46.69,0,*6D
1516024988.62,2325,10.0,72986.5,-9.11,-46.97,-46.75,0,*63
1516024989.86,2326,10.0,72984.0,-9.11,-46.97,-46.75,0,*60
1516024991.1,2327,10.0,72986.3,-9.11,-46.97,-46.75,0,*61
1516024992.36,2328,10.06,72988.0,-9.13,-47.03,-46.89,0,*63
1516024993.63,2329,10.06,72990.3,-9.13,-46.89,-46.69,0,*6F
1516024994.86,2330,10.0,72984.0,-9.13,-46.75,-46.69,0,*64
1516024996.1,2331,10.0,72984.3,-9.13,-46.89,-46.75,0,*6B
1516024997.34,2332,10.0,72984.3,-9.13,-46.97,-46.69,0,*6A
1516024998.58,2333,10.0,72984.8,-9.13,-46.89,-46.55,0,*6B
1516024999.82,2334,10.06,72990.0,-9.13,-46.89,-46.55,0,*6C
1516025001.06,2335,10.0,72982.8,-9.13,-46.75,-46.49,0,*63
1516025002.3,2336,10.0,72988.0,-9.13,-46.89,-46.55,0,*6E
1516025003.51,2337,10.0,72984.3,-9.13,-46.75,-46.55,0,*6C
1516025004.71,2338,10.0,72984.3,-9.13,-46.75,-46.55,0,*63
1516025005.92,2339,10.0,72986.8,-9.13,-46.75,-46.55,0,*62
1516025007.18,2340,10.06,72988.5,-9.15,-46.83,-46.61,0,*64
1516025008.44,2341,10.06,72990.5,-9.15,-46.61,-46.35,0,*68
1516025009.68,2342,10.06,72990.3,-9.15,-46.83,-46.55,0,*61
1516025010.94,2343,10.0,72986.3,-9.15,-46.83,-46.61,0,*67
1516025012.2,2344,10.0,72986.3,-9.15,-46.83,-46.61,0,*60
1516025013.43,2345,10.0,72984.0,-9.15,-46.83,-46.55,0,*66
1516025014.67,2346,10.06,72988.5,-9.15,-46.75,-46.55,0,*6C
1516025015.91,2347,10.0,72982.8,-9.17,-46.83,-46.55,0,*66
1516025017.14,2348,10.0,72984.3,-9.13,-46.75,-46.49,0,*69
1516025018.4,2349,10.0,72986.0,-9.15,-46.97,-46.61,0,*68
1516025019.66,2350,10.0,72984.8,-9.15,-46.97,-46.61,0,*60
1516025020.9,2351,10.0,72984.3,-9.15,-46.83,-46.55,0,*63
1516025022.13,2352,10.0,72984.8,-9.17,-46.75,-46.55,0,*6B
1516025023.38,2353,10.0,72988.0,-9.15,-46.75,-46.61,0,*6F
1516025024.64,2354,10.06,72990.3,-9.15,-47.03,-46.75,0,*6D
1516025025.9,2355,10.0,72984.0,-9.15,-46.75,-46.41,0,*6B
1516025027.13,2356,10.0,72986.5,-9.15,-46.75,-46.55,0,*6D
1516025028.36,2357,10.06,72990.0,-9.15,-46.75,-46.55,0,*6C
1516025029.62,2358,10.0,72986.3,-9.15,-46.61,-46.55,0,*66
1516025030.88,2359,10.0,72984.3,-9.17,-46.75,-46.41,0,*65
1516025032.11,2360,10.0,72986.3,-9.17,-46.75,-46.55,0,*6A
1516025033.39,2361,10.0,72984.3,-9.15,-46.61,-46.41,0,*69
1516025034.63,2362,10.06,72986.3,-9.17,-46.75,-46.55,0,*68
1516025035.88,2363,10.0,72986.0,-9.15,-46.75,-46.61,0,*6C
1516025037.11,2364,10.06,72990.0,-9.17,-46.75,-46.55,0,*6E
1516025038.35,2365,10.06,72988.8,-9.17,-46.75,-46.55,0,*6F
1516025039.61,2366,10.0,72984.8,-9.17,-46.83,-46.41,0,*60
1516025040.87,2367,10.0,72984.5,-9.17,-46.83,-46.61,0,*63
1516025042.13,2368,10.0,72986.3,-9.17,-46.83,-46.61,0,*6C
1516025043.37,2369,10.0,72984.3,-9.17,-46.75,-46.55,0,*63
1516025044.6,2370,10.0,72986.3,-9.15,-46.75,-46.55,0,*69
1516025045.86,2371,10.06,72988.0,-9.19,-46.69,-46.49,0,*64
1516025047.13,2372,10.0,72986.8,-9.19,-46.69,-46.49,0,*67
1516025048.35,2373,10.06,72990.3,-9.19,-46.83,-46.83,0,*64
1516025049.6,2374,10.0,72984.0,-9.17,-46.75,-46.61,0,*68
1516025050.84,2375,10.0,72986.8,-9.15,-46.97,-46.75,0,*62
1516025052.1,2376,10.0,72982.8,-9.19,-46.69,-46.61,0,*69
1516025053.36,2377,10.0,72986.0,-9.19,-46.69,-46.49,0,*62
1516025054.6,2378,10.06,72984.3,-9.19,-47.03,-46.83,0,*66
1516025055.86,2379,10.0,72986.0,-9.19,-47.03,-46.69,0,*63
1516025057.12,2380,10.06,72988.3,-9.19,-46.89,-46.69,0,*66
1516025058.36,2381,10.0,72984.0,-9.19,-47.03,-46.83,0,*60
1516025059.65,2382,10.0,72986.5,-9.21,-46.89,-46.61,0,*67
1516025060.91,2383,10.06,72988.5,-9.19,-46.89,-46.69,0,*65
1516025062.16,2384,10.0,72986.3,-9.19,-46.83,-46.49,0,*6A
1516025063.39,2385,10.06,72988.5,-9.19,-46.83,-46.61,0,*61
1516025064.68,2386,10.06,72986.3,-9.21,-46.89,-46.61,0,*63
1516025065.95,2387,10.0,72986.5,-9.19,-46.89,-46.69,0,*61
1516025067.2,2388,10.0,72984.5,-9.21,-46.83,-46.61,0,*67
1516025068.47,2389,10.06,72988.8,-9.19,-46.69,-46.49,0,*63
1516025069.76,2390,10.0,72986.0,-9.21,-46.69,-46.49,0,*60
1516025071.04,2391,10.0,72984.5,-9.21,-46.61,-46.41,0,*61
1516025072.3,2392,10.06,72990.5,-9.21,-46.61,-46.21,0,*64
1516025073.56,2393,10.0,72984.8,-9.19,-46.69,-46.27,0,*60
1516025074.82,2394,10.0,72986.0,-9.19,-46.61,-46.41,0,*6F
1516025076.09,2395,10.0,72984.3,-9.19,-46.69,-46.49,0,*6E
1516025077.37,2396,10.06,72986.5,-9.21,-46.69,-46.49,0,*66
1516025078.63,2397,10.0,72984.8,-9.21,-46.83,-46.69,0,*61
1516025079.92,2398,10.0,72986.8,-9.21,-46.69,-46.49,0,*68
1516025081.21,2399,10.0,72986.8,-9.21,-46.69,-46.49,0,*69
1516025082.47,2400,10.06,72984.8,-9.19,-46.61,-46.49,0,*6D
1516025083.76,2401,10.0,72982.8,-9.21,-46.69,-46.49,0,*6F
1516025085.05,2402,10.06,72988.5,-9.21,-46.69,-46.49,0,*6C
1516025086.31,2403,10.06,72988.3,-9.21,-46.83,-46.61,0,*63
1516025087.52,2404,10.0,72986.8,-9.23,-46.97,-46.75,0,*66
1516025088.72,2405,10.0,72986.5,-9.23,-46.75,-46.55,0,*69
1516025089.95,2406,10.06,72988.0,-9.23,-46.69,-46.35,0,*61
1516025091.18,2407,10.06,72986.8,-9.23,-46.75,-46.49,0,*66
1516025092.39,2408,10.0,72984.5,-9.27,-46.75,-46.35,0,*66
1516025093.61,2409,10.06,72990.0,-9.23,-46.97,-46.55,0,*69
1516025094.86,2410,10.0,72984.0,-9.23,-46.69,-46.49,0,*6D
1516025096.12,2411,10.0,72984.8,-9.23,-46.69,-46.49,0,*6C
1516025097.37,2412,10.0,72986.0,-9.27,-46.89,-46.55,0,*68
1516025098.59,2413,10.06,72990.3,-9.23,-46.75,-46.69,0,*61
1516025099.8,2414,10.06,72986.3,-9.23,-46.97,-46.75,0,*67
1516025101.03,2415,10.0,72986.8,-9.23,-46.97,-46.69,0,*6B
1516025102.24,2416,10.0,72982.8,-9.23,-46.75,-46.55,0,*6B
1516025103.45,2417,10.06,72986.8,-9.27,-46.75,-46.55,0,*6E
1516025104.66,2418,10.0,72982.8,-9.23,-46.97,-46.55,0,*69
1516025105.92,2419,10.0,72984.3,-9.27,-46.69,-46.49,0,*60
1516025107.17,2420,10.06,72984.8,-9.27,-46.89,-46.55,0,*69
1516025108.43,2421,10.06,72988.0,-9.23,-46.89,-46.69,0,*63
1516025109.66,2422,10.0,72980.8,-9.23,-46.69,-46.35,0,*67
1516025110.91,2423,10.0,72984.3,-9.23,-46.69,-46.49,0,*6D
1516025112.12,2424,10.06,72986.8,-9.23,-46.75,-46.55,0,*6A
1516025113.36,2425,10.06,72986.0,-9.27,-46.89,-46.55,0,*6C
1516025114.62,2426,10.0,72986.5,-9.27,-46.69,-46.49,0,*6C
1516025115.84,2427,10.06,72984.0,-9.27,-46.75,-46.55,0,*6D
1516025117.1,2428,10.0,72986.5,-9.27,-46.69,-46.27,0,*6A
1516025118.34,2429,10.0,72984.5,-9.27,-46.75,-46.49,0,*6E
1516025119.54,2430,10.06,72984.0,-9.23,-46.75,-46.55,0,*6F
1516025120.76,2431,10.0,72986.0,-9.27,-46.97,-46.75,0,*64
1516025122.0,2432,10.0,72986.8,-9.27,-46.97,-46.69,0,*6A
1516025123.26,2433,10.0,72986.0,-9.23,-46.89,-46.69,0,*60
1516025124.52,2434,10.06,72984.5,-9.29,-47.03,-46.75,0,*63
1516025125.78,2435,10.06,72984.3,-9.27,-46.89,-46.69,0,*62
1516025127.03,2436,10.06,72988.0,-9.29,-46.97,-46.75,0,*6D
1516025128.29,2437,10.0,72986.3,-9.29,-46.83,-46.61,0,*6C
1516025129.54,2438,10.0,72984.3,-9.27,-46.89,-46.55,0,*60
1516025130.75,2439,10.06,72984.8,-9.31,-47.17,-46.83,0,*6B
1516025132.02,2440,10.06,72984.5,-9.29,-47.03,-46.83,0,*69
1516025133.28,2441,10.0,72984.0,-9.29,-46.83,-46.61,0,*6D
1516025134.54,2442,10.06,72986.0,-9.29,-46.83,-46.61,0,*6E
1516025135.79,2443,10.06,72984.5,-9.29,-46.83,-46.55,0,*68
1516025137.02,2444,10.0,72984.3,-9.31,-46.83,-46.61,0,*61
1516025138.24,2445,10.0,72984.0,-9.31,-46.97,-46.55,0,*62
1516025139.48,2446,10.06,72988.0,-9.29,-46.75,-46.55,0,*64
1516025140.72,2447,10.0,72982.5,-9.29,-46.97,-46.75,0,*6B
1516025141.96,2448,10.0,72984.8,-9.31,-47.03,-46.97,0,*6D
1516025143.19,2449,10.0,72984.5,-9.31,-46.97,-46.61,0,*69
1516025144.45,2450,10.0,72982.8,-9.29,-46.75,-46.41,0,*66
1516025145.69,2451,10.06,72986.0,-9.31,-46.83,-46.41,0,*67
1516025146.9,2452,10.06,72984.0,-9.31,-46.75,-46.55,0,*68
1516025148.14,2453,10.0,72980.0,-9.31,-46.83,-46.61,0,*67
1516025149.37,2454,10.06,72984.8,-9.31,-46.75,-46.41,0,*6B
1516025150.59,2455,10.06,72984.0,-9.31,-46.83,-46.55,0,*66
1516025151.85,2456,10.0,72982.0,-9.29,-46.83,-46.61,0,*6B
1516025153.06,2457,10.0,72984.8,-9.31,-46.75,-46.35,0,*6B
1516025154.32,2458,10.0,72980.5,-9.31,-46.61,-46.41,0,*62
1516025155.56,2459,10.06,72984.8,-9.31,-46.75,-46.41,0,*66
1516025156.78,2460,10.06,72984.3,-9.31,-46.97,-46.55,0,*65
1516025157.99,2461,10.06,72982.8,-9.31,-46.83,-46.55,0,*61
1516025159.2,2462,10.06,72986.3,-9.31,-46.75,-46.55,0,*6B
1516025160.48,2463,10.06,72986.0,-9.33,-47.03,-46.69,0,*67
1516025161.75,2464,10.06,72986.0,-9.33,-47.09,-46.69,0,*6A
1516025163.01,2465,10.06,72988.3,-9.33,-47.09,-46.89,0,*65
1516025164.27,2466,10.06,72986.3,-9.33,-47.03,-46.83,0,*66
1516025165.51,2467,10.06,72982.8,-9.35,-47.03,-46.83,0,*61
1516025166.8,2468,10.06,72984.0,-9.33,-47.03,-46.69,0,*6C
1516025168.03,2469,10.06,72982.8,-9.35,-46.83,-46.61,0,*6A
1516025169.32,2470,10.06,72986.3,-9.33,-46.89,-46.69,0,*66
1516025170.59,2471,10.0,72982.5,-9.33,-46.83,-46.61,0,*65
1516025171.88,2472,10.06,72988.0,-9.33,-46.89,-46.89,0,*6A
1516025173.17,2473,10.0,72982.3,-9.33,-46.89,-46.69,0,*65
1516025174.43,2474,10.0,72980.5,-9.33,-46.83,-46.49,0,*6A
1516025175.68,2475,10.06,72984.0,-9.35,-46.83,-46.49,0,*6D
1516025176.94,2476,10.06,72984.3,-9.33,-46.83,-46.41,0,*60
1516025178.19,2477,10.06,72984.5,-9.35,-46.83,-46.49,0,*6F
1516025179.46,2478,10.0,72980.0,-9.33,-46.83,-46.49,0,*66
1516025180.74,2479,10.06,72984.8,-9.33,-46.69,-46.41,0,*6B
1516025182.01,2480,10.06,72986.0,-9.35,-46.69,-46.49,0,*63
1516025183.29,2481,10.06,72986.5,-9.33,-46.89,-46.61,0,*60
1516025184.56,2482,10.06,72986.5,-9.33,-46.83,-46.61,0,*69
1516025185.82,2483,10.06,72986.8,-9.33,-46.83,-46.49,0,*62
1516025187.09,2484,10.06,72984.8,-9.33,-46.83,-46.49,0,*65
1516025188.33,2485,10.06,72986.8,-9.35,-46.83,-46.61,0,*68
1516025189.6,2486,10.0,72980.3,-9.33,-46.83,-46.41,0,*6F
1516025190.88,2487,10.06,72984.0,-9.33,-46.89,-46.61,0,*66
1516025192.15,2488,10.06,72986.0,-9.35,-46.89,-46.69,0,*67
1516025193.39,2489,10.06,72984.3,-9.35,-47.03,-46.83,0,*61
1516025194.63,2490,10.06,72984.0,-9.35,-47.03,-46.83,0,*69
1516025195.89,2491,10.06,72982.5,-9.33,-46.83,-46.61,0,*6B
1516025197.18,2492,10.06,72982.5,-9.33,-46.89,-46.69,0,*6A
1516025198.47,2493,10.06,72984.8,-9.37,-46.89,-46.69,0,*6F
1516025199.74,2494,10.06,72986.3,-9.37,-46.89,-46.55,0,*67
1516025201.01,2495,10.06,72980.8,-9.37,-46.97,-46.69,0,*66
1516025202.25,2496,10.06,72984.0,-9.37,-46.97,-46.75,0,*68
1516025203.52,2497,10.06,72984.3,-9.37,-46.89,-46.55,0,*64
1516025204.79,2498,10.06,72982.8,-9.37,-46.89,-46.55,0,*6B
1516025206.08,2499,10.06,72986.3,-9.37,-46.89,-46.69,0,*65
1516025207.37,2500,10.06,72982.8,-9.37,-46.89,-46.69,0,*64
1516025208.67,2501,10.06,72982.8,-9.37,-46.89,-46.49,0,*67
1516025209.91,2502,10.06,72986.5,-9.37,-46.75,-46.55,0,*6A
1516025211.15,2503,10.0,72982.8,-9.37,-46.97,-46.75,0,*65
1516025212.45,2504,10.06,72988.0,-9.37,-46.89,-46.49,0,*62
1516025213.68,2505,10.06,72984.8,-9.39,-46.75,-46.49,0,*6E
1516025214.97,2506,10.06,72984.0,-9.37,-46.69,-46.49,0,*6E
1516025216.21,2507,10.06,72986.0,-9.37,-46.75,-46.35,0,*69
1516025217.48,2508,10.06,72986.8,-9.39,-46.89,-46.49,0,*60
1516025218.78,2509,10.06,72984.5,-9.37,-46.89,-46.49,0,*6F
1516025220.01,2510,10.06,72986.8,-9.37,-46.75,-46.55,0,*69
1516025221.28,2511,10.06,72984.0,-9.39,-46.89,-46.69,0,*6A
1516025222.55,2512,10.06,72982.8,-9.37,-46.89,-46.55,0,*68
1516025223.81,2513,10.0,72982.5,-9.37,-46.89,-46.55,0,*69
1516025225.08,2514,10.06,72984.3,-9.39,-46.89,-46.49,0,*6D
1516025226.35,2515,10.06,72986.8,-9.39,-46.89,-46.49,0,*6C
1516025227.59,2516,10.06,72984.0,-9.39,-46.89,-46.55,0,*62
1516025228.89,2517,10.06,72984.8,-9.37,-46.89,-46.49,0,*60
1516025230.16,2518,10.06,72984.8,-9.37,-46.89,-46.55,0,*62
1516025231.45,2519,10.06,72984.0,-9.37,-46.89,-46.49,0,*6E
1516025232.69,2520,10.06,72982.8,-9.39,-46.75,-46.49,0,*69
1516025233.9,2521,10.06,72986.0,-9.39,-46.75,-46.55,0,*65
1516025235.13,2522,10.06,72988.5,-9.39,-46.75,-46.49,0,*6B
1516025236.34,2523,10.06,72984.5,-9.39,-46.55,-46.35,0,*63
1516025237.57,2524,10.06,72982.0,-9.39,-46.75,-46.49,0,*6D
1516025238.84,2525,10.06,72984.8,-9.39,-46.69,-46.27,0,*69
1516025240.1,2526,10.06,72980.8,-9.37,-46.69,-46.35,0,*67
1516025241.39,2527,10.06,72984.5,-9.37,-46.49,-46.27,0,*67
1516025242.63,2528,10.06,72984.5,-9.39,-46.69,-46.35,0,*67
1516025243.86,2529,10.06,72984.3,-9.39,-46.75,-46.49,0,*60
1516025245.07,2530,10.06,72986.8,-9.39,-46.75,-46.35,0,*63
1516025246.3,2531,10.06,72986.3,-9.39,-46.75,-46.69,0,*6B
1516025247.54,2532,10.06,72982.3,-9.39,-46.89,-46.55,0,*64
1516025248.78,2533,10.06,72986.3,-9.41,-46.83,-46.55,0,*60
1516025250.03,2534,10.06,72986.3,-9.41,-46.83,-46.55,0,*67
1516025251.23,2535,10.06,72982.5,-9.39,-46.75,-46.55,0,*60
1516025252.47,2536,10.06,72980.8,-9.39,-46.75,-46.49,0,*6E
1516025253.73,2537,10.06,72984.3,-9.41,-46.75,-46.41,0,*68
1516025255.0,2538,10.06,72984.8,-9.41,-46.83,-46.41,0,*6E
1516025256.24,2539,10.06,72984.0,-9.41,-46.83,-46.55,0,*6A
1516025257.51,2540,10.06,72986.5,-9.41,-46.83,-46.61,0,*63
1516025258.74,2541,10.06,72986.0,-9.41,-46.75,-46.55,0,*6C
1516025260.01,2542,10.06,72984.8,-9.41,-46.83,-46.61,0,*61
1516025261.24,2543,10.06,72984.0,-9.41,-46.75,-46.55,0,*6E
1516025262.51,2544,10.06,72984.5,-9.41,-46.83,-46.61,0,*67
1516025263.75,2545,10.06,72986.0,-9.41,-46.83,-46.75,0,*63
1516025264.97,2546,10.06,72982.5,-9.43,-46.83,-46.55,0,*60
1516025266.21,2547,10.06,72984.0,-9.41,-46.75,-46.55,0,*6A
1516025267.47,2548,10.06,72986.3,-9.41,-46.83,-46.61,0,*6B
1516025268.71,2549,10.06,72984.0,-9.41,-46.75,-46.35,0,*62
1516025269.97,2550,10.06,72984.0,-9.41,-46.61,-46.35,0,*6F
1516025271.21,2551,10.06,72980.8,-9.41,-46.75,-46.55,0,*6D
1516025272.47,2552,10.06,72986.0,-9.41,-46.75,-46.41,0,*6B
1516025273.76,2553,10.06,72982.8,-9.41,-46.61,-46.41,0,*6F
1516025275.0,2554,10.06,72986.3,-9.43,-46.61,-46.35,0,*69
1516025276.24,2555,10.06,72982.5,-9.41,-46.83,-46.55,0,*60
1516025277.48,2556,10.06,72982.5,-9.43,-46.83,-46.61,0,*66
1516025278.72,2557,10.06,72984.5,-9.41,-46.83,-46.55,0,*62
1516025279.93,2558,10.06,72984.3,-9.39,-46.75,-46.35,0,*6D
1516025281.17,2559,10.06,72984.8,-9.43,-46.75,-46.41,0,*62
1516025282.38,2560,10.06,72986.3,-9.43,-46.83,-46.55,0,*64
1516025283.59,2561,10.06,72984.3,-9.43,-46.75,-46.55,0,*6C
1516025284.86,2562,10.06,72988.3,-9.41,-46.83,-46.61,0,*63
1516025286.12,2563,10.06,72984.8,-9.41,-46.75,-46.41,0,*69
1516025287.34,2564,10.06,72984.8,-9.43,-46.83,-46.55,0,*60
1516025288.6,2565,10.06,72984.5,-9.41,-46.75,-46.41,0,*6F
1516025289.84,2566,10.06,72984.8,-9.43,-46.83,-46.41,0,*67
1516025291.08,2567,10.06,72984.5,-9.43,-47.03,-46.83,0,*61
1516025292.32,2568,10.06,72984.5,-9.43,-47.03,-46.97,0,*6B
1516025293.55,2569,10.06,72984.0,-9.43,-46.97,-46.61,0,*6F
1516025294.82,2570,10.06,72980.8,-9.41,-46.97,-46.61,0,*65
1516025296.04,2571,10.06,72984.5,-9.43,-46.83,-46.55,0,*64
1516025297.27,2572,10.06,72986.5,-9.43,-46.83,-46.61,0,*60
1516025298.51,2573,10.06,72980.5,-9.43,-46.97,-46.61,0,*64
1516025299.75,2574,10.06,72982.5,-9.43,-47.09,-46.89,0,*63
1516025300.99,2575,10.06,72982.3,-9.43,-46.97,-46.61,0,*62
1516025302.28,2576,10.06,72984.3,-9.45,-46.89,-46.69,0,*60
1516025303.57,2577,10.06,72984.8,-9.45,-46.89,-46.69,0,*61
1516025304.85,2578,10.06,72984.3,-9.45,-47.03,-46.69,0,*6D
1516025306.13,2579,10.06,72980.5,-9.45,-47.03,-46.61,0,*64
1516025307.39,2580,10.06,72986.0,-9.45,-46.83,-46.61,0,*6B
1516025308.68,2581,10.06,72980.8,-9.49,-46.89,-46.49,0,*66
1516025309.97,2582,10.06,72984.5,-9.45,-46.89,-46.41,0,*61
1516025311.26,2583,10.06,72984.3,-9.45,-46.89,-46.49,0,*68
1516025312.53,2584,10.06,72982.5,-9.45,-46.83,-46.49,0,*65